Terminal Aerodrome Forecast
Issued by NWS

Home | Current Version | Previous Version | Text Only | Print | Product List | Glossary On
Versions: 1 2 3 4 5 6 7 8 9 10 11 12 13 14 15 16 17 18 19
830
FTUS43 KSGF 180527
TAFJLN
TAF
KJLN 180527Z 1806/1906 12004KT 5SM BR SKC
     FM181200 15008KT P6SM FEW100
     FM181400 16013G20KT P6SM FEW200
     FM181900 18019G28KT P6SM SCT250
     FM190200 18017G25KT P6SM BKN250 WS020/21050KT=

USA.gov is the U.S. government's official web portal to all federal, state and local government web resources and services.